Zurück zum Katalog

STARLINK-32623

AktivKommunikationVLEO
NORAD 62152·PAYLOAD·🇺🇸 United States

Gestartet Nov 30, 2024 von Cape Canaveral Space Force Station

Loading…

Nächste Überflüge (nächste 24 Stunden)

TLE

AktuellSource: CelesTrak SupGP

Epoche: Sep 14, 2026, 22:31 UTC

1 62152C 24224P   26257.93868056 -.00051073  00000+0 -18497-2 0  2572
2 62152  43.0001 172.6413 0001198 267.7144 136.8562 15.27607318    12

Verfolge STARLINK-32623 in Echtzeit mit AllMySat

Download on the App Store